TimeEDT,TemperatureF,Dew PointF,Humidity,Sea Level PressureIn,VisibilityMPH,Wind Direction,Wind SpeedMPH,Gust SpeedMPH,PrecipitationIn,Events,Conditions,WindDirDegrees,DateUTC
12:53 AM,64.0,52.0,65,30.22,10.0,Calm,Calm,-,N/A,,Clear,0,2013-06-21 04:53:00
1:53 AM,64.0,53.1,67,30.21,10.0,Calm,Calm,-,N/A,,Clear,0,2013-06-21 05:53:00
2:53 AM,63.0,53.1,70,30.20,10.0,Calm,Calm,-,N/A,,Clear,0,2013-06-21 06:53:00
3:53 AM,63.0,51.1,65,30.19,10.0,SSE,4.6,-,N/A,,Clear,150,2013-06-21 07:53:00
4:53 AM,61.0,53.1,75,30.19,10.0,Calm,Calm,-,N/A,,Clear,0,2013-06-21 08:53:00
5:53 AM,60.1,53.1,78,30.19,10.0,Calm,Calm,-,N/A,,Clear,0,2013-06-21 09:53:00
6:53 AM,63.0,54.0,72,30.19,10.0,Calm,Calm,-,N/A,,Clear,0,2013-06-21 10:53:00
7:53 AM,68.0,57.9,70,30.18,10.0,SSE,5.8,-,N/A,,Clear,160,2013-06-21 11:53:00
8:53 AM,72.0,60.1,66,30.21,10.0,SSW,3.5,-,N/A,,Mostly Cloudy,200,2013-06-21 12:53:00
9:53 AM,75.0,62.1,64,30.19,10.0,SSE,8.1,-,N/A,,Mostly Cloudy,150,2013-06-21 13:53:00
10:53 AM,75.9,63.0,64,30.19,10.0,Calm,Calm,-,N/A,,Scattered Clouds,0,2013-06-21 14:53:00
11:53 AM,77.0,63.0,62,30.20,10.0,SSE,4.6,-,N/A,,Mostly Cloudy,160,2013-06-21 15:53:00
12:53 PM,81.0,63.0,54,30.20,10.0,Variable,3.5,-,N/A,,Clear,0,2013-06-21 16:53:00
1:53 PM,82.9,64.0,53,30.17,10.0,Variable,5.8,-,N/A,,Clear,0,2013-06-21 17:53:00
2:53 PM,84.0,63.0,49,30.16,10.0,South,9.2,-,N/A,,Clear,190,2013-06-21 18:53:00
3:53 PM,84.0,62.1,47,30.14,10.0,SSW,10.4,19.6,N/A,,Clear,200,2013-06-21 19:53:00
4:53 PM,84.9,62.1,46,30.14,10.0,SSW,10.4,-,N/A,,Clear,200,2013-06-21 20:53:00
5:53 PM,82.9,62.1,49,30.11,10.0,South,12.7,17.3,N/A,,Clear,180,2013-06-21 21:53:00
6:53 PM,82.0,60.1,47,30.09,10.0,South,10.4,-,N/A,,Clear,180,2013-06-21 22:53:00
7:53 PM,80.1,60.1,50,30.09,10.0,SSE,12.7,-,N/A,,Clear,160,2013-06-21 23:53:00
8:53 PM,78.1,60.1,54,30.07,10.0,South,6.9,-,N/A,,Clear,170,2013-06-22 00:53:00
9:53 PM,77.0,61.0,58,30.07,10.0,SSE,6.9,-,N/A,,Clear,150,2013-06-22 01:53:00
10:53 PM,75.0,62.1,64,30.10,10.0,SSE,3.5,-,N/A,,Clear,160,2013-06-22 02:53:00
11:53 PM,73.9,62.1,66,30.10,10.0,South,5.8,-,N/A,,Clear,170,2013-06-22 03:53:00